Probability
58 90 100 100 100 100 100 100 100 100 100 100 100 100 100 100 100 100 100 97 94 94 97 87 81 77 81 84 87 84 81 81 77 81 77 81 87 90 84 87 84 74 87
81 94 100 100 100 100 100 100 100 100 100 100 100 100 100 100 100 100 100 94 94 87 81 81 84 84 90 84 87 84 84 81 87 81 84 90 87 90 84 84 81 77 90
87 94 100 100 100 100 100 100 100 100 100 100 100 100 100 97 100 100 97 90 87 87 87 77 81 81 77 84 77 81 81 81 87 84 81 68 87 90 87 81 87 87 84
94 94 100 100 100 100 100 100 100 100 100 100 100 100 100 97 97 97 97 90 90 84 90 84 77 77 77 74 74 71 81 71 84 77 55 55 68 90 87 87 87 90 90
94 94 100 100 100 100 100 100 100 100 100 100 100 100 100 100 97 97 90 90 90 87 87 87 77 81 84 81 74 77 81 81 84 45 42 55 74 94 90 90 87 81 87
90 94 100 100 100 100 100 100 100 100 100 100 100 100 100 100 100 97 97 97 90 90 90 94 84 90 87 81 74 71 77 81 48 26 45 58 71 94 94 97 87 84 90
90 94 100 100 100 100 100 100 100 100 100 100 100 100 100 100 97 94 94 97 97 90 87 87 87 84 81 84 71 74 77 71 16 26 45 55 87 94 94 90 87 90 84
90 100 100 100 100 100 100 100 100 100 100 100 100 100 100 100 100 94 94 94 97 97 90 94 94 94 77 74 77 84 77 65 29 32 45 58 97 97 87 90 87 84 81
100 100 100 100 100 100 100 100 100 100 100 100 100 100 100 100 97 94 94 90 97 97 90 90 90 87 81 81 90 81 74 65 26 35 39 74 97 97 81 87 87 87 84
100 100 97 97 97 100 100 100 100 100 100 100 100 100 100 94 94 94 94 97 90 94 90 87 84 81 81 84 84 87 81 52 19 29 42 77 94 87 81 84 81 87 84
94 94 90 90 94 100 100 100 100 100 100 100 100 100 100 77 81 87 94 94 90 94 90 77 74 84 87 90 84 71 48 23 19 32 45 77 97 87 84 84 74 84 81
94 87 90 84 87 94 97 90 90 90 90 87 87 90 52 42 58 81 90 97 90 90 90 90 90 71 39 29 61 42 13 13 19 32 45 81 90 84 84 87 84 84 74
84 87 81 77 77 84 81 84 84 81 74 71 68 52 23 26 39 42 58 71 65 71 52 55 39 16 16 16 10 6 10 13 13 32 45 77 87 81 84 84 77 81 77
65 81 77 71 65 65 61 71 58 65 68 65 58 29 23 16 16 19 35 32 19 13 13 13 10 6 10 3 6 6 10 10 10 26 45 74 84 84 81 84 81 71 81
58 61 68 65 61 61 52 65 58 45 55 45 42 23 23 16 13 13 13 13 10 0 3 6 6 6 3 3 6 6 3 13 10 26 48 68 81 84 84 84 77 71 68
52 58 61 61 48 32 39 52 52 48 42 39 32 32 10 13 13 13 13 3 0 0 0 3 3 3 3 3 6 6 6 10 13 19 35 61 77 84 84 84 74 74 68
45 48 52 45 39 29 26 26 35 32 32 32 29 23 13 10 10 13 6 6 0 6 6 3 3 3 3 3 3 6 6 3 13 19 39 48 68 77 81 84 87 87 87
48 39 48 45 39 26 19 19 19 16 16 16 23 16 16 6 3 3 10 10 3 6 6 3 3 0 0 0 0 3 3 3 3 10 19 35 58 61 68 74 84 87 77
42 35 35 39 26 16 13 16 13 13 16 13 13 13 10 10 3 6 13 10 3 0 0 3 3 0 0 0 0 0 3 3 3 6 13 16 19 29 52 52 81 84 81
29 29 29 26 16 10 6 10 10 6 6 6 6 10 6 10 10 6 6 3 0 0 0 0 0 0 0 0 0 0 0 0 3 3 3 3 6 10 16 29 52 61 71
32 26 19 19 13 6 3 13 13 10 10 10 6 3 6 13 6 6 6 0 0 0 0 0 0 0 0 0 0 0 0 0 0 0 0 3 3 10 3 10 16 29 39
39 26 16 13 6 6 3 3 6 10 13 13 6 6 6 10 10 6 0 0 0 0 0 0 0 0 0 0 0 0 0 0 0 0 0 0 3 3 3 3 6 10 3
39 26 26 13 6 6 10 3 6 6 6 6 10 6 6 13 10 10 0 0 0 0 0 0 0 0 0 0 0 0 0 0 0 0 0 0 0 3 3 3 3 3 3
39 32 26 16 13 10 10 3 3 6 10 6 6 6 3 6 10 6 3 0 0 0 0 0 0 0 0 0 0 0 0 0 0 0 0 0 0 0 0 0 0 0 0
42 35 35 26 23 16 13 10 3 3 3 3 6 3 0 0 3 6 10 0 0 0 0 0 0 0 0 0 0 0 0 0 0 0 0 0 0 0 0 0 0 0 0
35 39 29 29 23 19 19 13 10 3 3 3 3 3 3 3 3 0 3 0 0 0 0 0 0 0 0 0 0 0 0 0 0 0 0 0 0 0 0 0 0 0 0
Height
5884 5885 5886 5888 5888 5889 5891 5892 5894 5895 5896 5897 5899 5900 5901 5902 5902 5903 5903 5904 5904 5904 5905 5905 5905 5905 5905 5905 5905 5905 5905 5905 5905 5905 5905 5905 5906 5906 5907 5907 5908 5908 5909
5885 5886 5887 5888 5889 5890 5891 5893 5894 5896 5897 5898 5900 5901 5902 5902 5903 5904 5904 5904 5905 5905 5905 5905 5905 5905 5905 5905 5905 5905 5905 5906 5906 5906 5906 5906 5907 5907 5908 5909 5909 5910 5910
5886 5887 5888 5889 5890 5891 5892 5893 5895 5896 5898 5899 5900 5901 5902 5903 5904 5904 5905 5905 5905 5905 5905 5906 5906 5906 5906 5906 5906 5906 5906 5906 5906 5907 5907 5907 5908 5908 5909 5910 5910 5911 5911
5887 5888 5888 5889 5891 5892 5893 5894 5895 5897 5898 5899 5901 5902 5903 5903 5904 5904 5905 5905 5905 5906 5906 5906 5906 5906 5906 5906 5906 5906 5907 5907 5907 5907 5908 5908 5909 5910 5910 5911 5911 5912 5912
5887 5888 5889 5890 5891 5892 5893 5895 5896 5897 5898 5900 5901 5902 5903 5903 5904 5904 5905 5905 5906 5906 5906 5907 5907 5907 5907 5907 5907 5907 5907 5907 5908 5908 5909 5909 5910 5910 5911 5912 5912 5913 5913
5888 5889 5889 5890 5891 5892 5894 5895 5896 5897 5899 5900 5901 5902 5903 5903 5904 5905 5905 5906 5906 5906 5907 5907 5907 5907 5907 5908 5908 5908 5908 5908 5909 5909 5910 5910 5910 5911 5911 5912 5913 5913 5914
5888 5889 5889 5890 5891 5892 5894 5895 5896 5897 5899 5900 5901 5902 5903 5903 5904 5905 5905 5906 5906 5907 5907 5907 5907 5908 5908 5908 5908 5909 5909 5909 5909 5910 5910 5911 5911 5911 5912 5912 5913 5914 5914
5889 5889 5889 5890 5891 5892 5893 5895 5896 5897 5899 5900 5901 5902 5903 5904 5904 5905 5906 5906 5906 5907 5907 5907 5908 5908 5908 5909 5909 5909 5910 5910 5910 5910 5911 5911 5912 5912 5912 5913 5914 5914 5915
5889 5889 5890 5890 5891 5892 5893 5894 5895 5897 5898 5900 5901 5902 5903 5904 5904 5905 5906 5906 5906 5907 5907 5908 5908 5908 5909 5909 5909 5910 5910 5910 5910 5911 5911 5911 5912 5912 5913 5913 5914 5915 5915
5889 5889 5890 5890 5891 5891 5892 5893 5895 5896 5897 5899 5900 5901 5903 5903 5904 5905 5906 5906 5907 5907 5907 5908 5908 5908 5909 5909 5909 5910 5910 5910 5911 5911 5911 5912 5912 5913 5913 5914 5914 5915 5915
5889 5889 5889 5889 5890 5890 5891 5892 5894 5895 5897 5898 5900 5901 5902 5903 5904 5905 5906 5906 5907 5907 5907 5908 5908 5909 5909 5909 5910 5910 5910 5910 5911 5911 5912 5912 5912 5913 5913 5914 5914 5915 5915
5889 5889 5889 5888 5889 5889 5890 5891 5892 5894 5896 5897 5899 5901 5902 5903 5904 5905 5905 5906 5907 5907 5907 5908 5908 5909 5909 5909 5910 5910 5911 5911 5911 5912 5912 5912 5913 5913 5914 5914 5915 5915 5915
5890 5889 5888 5888 5887 5888 5889 5890 5891 5893 5895 5896 5898 5900 5901 5903 5904 5905 5905 5906 5906 5907 5908 5908 5908 5909 5909 5909 5910 5910 5911 5911 5911 5912 5912 5912 5913 5913 5914 5914 5915 5915 5915
5890 5889 5887 5886 5886 5886 5887 5888 5890 5892 5893 5895 5897 5899 5901 5902 5903 5904 5905 5906 5906 5907 5907 5908 5908 5909 5909 5909 5910 5910 5911 5911 5911 5912 5912 5913 5913 5913 5914 5914 5914 5915 5915
5889 5888 5887 5885 5885 5885 5886 5887 5888 5890 5892 5894 5896 5898 5900 5901 5903 5904 5905 5905 5906 5906 5907 5908 5908 5909 5909 5910 5910 5910 5911 5911 5911 5912 5912 5912 5913 5913 5914 5914 5914 5915 5915
5889 5888 5886 5885 5883 5883 5884 5885 5887 5888 5890 5892 5895 5897 5899 5900 5902 5903 5904 5905 5905 5906 5907 5907 5908 5908 5909 5909 5910 5910 5910 5911 5911 5912 5912 5912 5913 5913 5913 5914 5914 5914 5914
5888 5887 5885 5884 5883 5883 5883 5884 5886 5887 5889 5891 5893 5896 5898 5899 5901 5902 5903 5904 5905 5906 5906 5907 5907 5908 5908 5909 5910 5910 5910 5911 5911 5911 5912 5912 5912 5913 5913 5913 5913 5913 5913
5887 5886 5885 5883 5882 5882 5882 5883 5884 5886 5887 5890 5892 5894 5896 5898 5900 5901 5903 5904 5904 5905 5906 5906 5907 5907 5908 5909 5909 5909 5910 5910 5911 5911 5912 5912 5912 5912 5913 5913 5913 5913 5913
5887 5885 5883 5882 5881 5881 5881 5882 5883 5884 5886 5888 5890 5893 5895 5897 5899 5900 5902 5903 5904 5905 5905 5906 5907 5907 5907 5908 5909 5909 5909 5910 5910 5911 5911 5912 5912 5912 5912 5912 5913 5912 5912
5886 5884 5882 5881 5880 5880 5880 5880 5881 5883 5884 5886 5888 5891 5893 5895 5897 5899 5901 5902 5903 5904 5905 5905 5906 5907 5907 5908 5908 5908 5909 5909 5910 5910 5911 5911 5912 5912 5912 5912 5912 5912 5911
5886 5884 5882 5880 5879 5879 5879 5879 5880 5881 5882 5884 5886 5889 5891 5894 5896 5898 5899 5901 5902 5903 5904 5904 5905 5906 5906 5907 5908 5908 5909 5909 5910 5910 5910 5911 5911 5911 5911 5911 5911 5911 5911
5885 5883 5881 5879 5878 5878 5878 5877 5879 5880 5881 5883 5884 5887 5889 5892 5894 5896 5898 5900 5901 5902 5903 5903 5904 5905 5905 5906 5907 5907 5908 5909 5909 5909 5909 5910 5910 5910 5910 5910 5910 5910 5910
5884 5882 5881 5879 5878 5877 5877 5877 5878 5878 5879 5881 5883 5885 5887 5889 5892 5894 5896 5898 5899 5901 5901 5902 5903 5904 5904 5905 5905 5906 5906 5907 5907 5908 5908 5908 5909 5909 5908 5908 5908 5908 5908
5883 5881 5880 5878 5878 5876 5876 5875 5876 5877 5877 5879 5881 5882 5885 5887 5890 5892 5894 5896 5897 5899 5899 5900 5901 5901 5902 5903 5903 5904 5905 5905 5906 5906 5907 5907 5907 5907 5906 5906 5906 5906 5906
5882 5880 5878 5877 5877 5876 5875 5874 5874 5875 5876 5877 5879 5881 5883 5885 5888 5890 5892 5893 5895 5896 5897 5898 5898 5899 5900 5900 5901 5902 5902 5903 5903 5904 5904 5904 5904 5904 5904 5904 5904 5903 5903
5880 5879 5877 5876 5875 5875 5874 5873 5873 5873 5874 5875 5877 5879 5881 5883 5886 5887 5889 5891 5892 5893 5894 5895 5896 5896 5897 5898 5898 5899 5900 5900 5901 5901 5901 5901 5901 5901 5901 5901 5901 5901 5900
Wind_Speed
6 5 5 6 6 7 9 9 9 10 10 10 10 9 9 9 8 8 8 7 7 6 6 6 6 6 6 6 5 5 5 5 5 5 6 6 6 7 7 7 8 8 8
5 5 5 6 6 7 8 9 9 9 9 9 9 9 8 8 8 8 7 7 6 6 5 5 6 5 5 5 5 5 5 5 5 5 6 6 7 7 7 7 7 7 7
4 5 5 5 6 7 7 7 8 8 8 8 8 8 8 7 7 7 7 7 6 5 5 5 5 5 5 5 4 4 4 5 5 5 5 5 6 6 6 6 7 7 7
3 3 4 5 5 6 6 6 7 7 7 7 7 7 7 7 7 7 6 6 5 5 4 5 5 5 4 4 4 4 4 4 5 5 5 5 5 5 5 6 6 6 6
2 3 4 5 5 5 5 5 5 5 6 6 6 6 6 6 7 7 6 5 5 4 4 4 4 4 4 4 4 3 3 4 4 4 5 5 5 5 5 5 5 5 6
1 3 4 4 4 5 4 4 4 4 4 5 4 5 5 6 6 6 6 5 4 4 3 3 3 4 3 3 3 3 3 4 4 4 4 4 4 4 4 4 5 5 5
2 2 3 4 5 5 4 4 3 3 4 4 3 4 4 5 5 5 5 5 4 3 3 3 3 3 3 3 3 3 3 3 3 4 4 4 4 3 3 3 4 4 3
2 1 2 3 4 4 4 4 4 4 3 3 2 2 3 3 4 4 4 4 4 3 3 3 2 2 2 2 3 2 2 2 2 3 3 3 3 3 3 3 3 3 2
2 1 1 2 3 4 4 4 5 4 3 2 2 2 2 2 3 3 3 3 3 3 3 2 2 1 1 1 2 1 1 2 2 2 3 3 2 2 2 3 2 2 1
2 1 0 2 3 4 5 5 5 5 5 3 2 2 1 2 2 2 3 2 2 2 2 2 1 1 1 1 1 1 1 2 2 2 2 2 2 2 2 2 2 2 1
3 1 2 2 3 4 5 6 6 6 6 5 4 3 2 1 1 1 2 2 2 2 2 1 1 0 1 1 1 1 1 1 1 1 2 3 2 2 2 2 2 2 2
5 3 2 2 3 4 5 6 7 7 6 6 6 5 3 2 1 0 1 1 1 1 1 1 0 0 1 1 1 1 1 1 1 1 2 2 2 2 2 2 2 3 3
6 5 3 3 4 4 5 6 8 8 8 7 7 6 5 3 2 1 0 1 1 1 1 1 1 1 1 1 1 1 1 1 1 1 1 2 2 3 3 3 3 3 3
7 6 5 5 3 4 6 7 8 9 10 9 8 7 6 5 4 2 1 1 0 1 1 1 1 1 1 1 2 1 1 1 1 2 2 2 2 3 3 4 4 4 4
8 7 6 5 4 4 6 7 9 10 10 10 10 9 8 7 5 4 2 2 1 1 1 1 1 1 1 1 1 2 2 1 2 2 3 3 3 3 3 4 4 4 4
8 8 7 6 4 3 6 8 10 11 11 11 11 10 10 8 6 5 3 3 2 1 1 1 2 2 2 2 2 2 2 2 2 3 3 3 3 3 3 3 4 4 5
8 8 8 7 4 3 5 7 9 10 11 12 12 12 11 9 7 6 4 4 3 3 3 2 2 3 3 2 2 2 2 2 2 2 3 3 3 4 4 4 4 4 5
9 8 9 9 5 3 5 7 9 10 12 13 13 13 12 10 9 7 6 5 4 4 4 3 3 3 3 3 2 2 3 3 3 3 3 3 3 3 3 4 4 4 5
9 9 9 8 6 4 3 5 8 10 11 13 13 13 13 12 10 9 8 7 6 5 5 4 4 4 3 3 3 3 3 3 3 3 3 3 3 3 4 4 4 5 5
9 9 9 7 6 5 4 5 6 9 11 12 13 13 13 13 12 10 9 9 7 7 6 5 5 5 4 4 3 3 3 4 4 4 4 4 4 4 4 5 5 5 5
10 9 9 8 6 4 4 5 6 9 10 11 12 14 14 13 13 11 11 10 9 8 7 7 6 6 5 5 5 5 5 5 5 5 4 5 5 5 6 6 6 6 6
10 9 10 8 7 4 3 5 6 8 10 11 11 13 14 14 14 13 12 11 10 9 8 8 8 7 7 7 7 7 6 6 6 6 6 6 6 7 7 7 7 7 7
10 9 9 8 7 5 4 4 5 7 10 12 12 14 14 14 14 14 13 12 11 10 10 9 9 9 9 8 8 8 8 8 8 8 8 8 8 8 9 8 8 8 8
9 9 9 8 7 6 5 4 5 7 9 11 13 14 14 15 15 15 14 14 13 12 11 11 11 11 10 10 10 10 10 10 10 10 10 9 9 9 9 9 10 10 10
9 8 8 8 7 5 5 5 5 6 9 10 13 14 15 16 16 16 16 15 15 14 12 12 12 12 12 12 12 12 12 12 12 12 12 12 12 11 11 12 11 12 12
9 8 8 7 7 6 5 5 5 6 8 9 12 14 14 15 15 16 16 15 15 14 14 14 14 14 14 14 14 14 14 14 14 14 14 14 14 14 14 14 14 14 14
Wind_Direction
133 139 147 153 146 136 126 118 108 101 96 92 86 79 75 70 66 61 58 58 57 59 60 59 59 61 65 71 72 72 76 85 88 96 98 100 97 95 96 99 106 106 105
129 145 153 156 152 140 132 124 112 104 97 92 87 79 73 69 66 62 57 55 54 54 57 56 55 59 64 70 69 68 75 86 89 98 100 100 98 98 99 101 105 108 108
119 142 156 156 152 143 136 127 118 109 100 94 90 82 74 69 63 59 56 55 51 50 51 53 55 55 61 67 68 65 75 83 87 98 95 100 99 104 107 107 109 113 110
133 153 165 164 154 149 142 133 123 111 103 96 90 82 72 66 60 56 52 52 49 49 47 47 51 53 57 62 64 67 79 87 90 98 105 109 106 109 112 112 114 116 111
152 165 161 161 157 149 148 147 129 118 109 97 88 81 70 60 55 51 50 50 49 48 44 43 48 52 53 57 63 76 91 96 94 105 114 114 112 114 113 115 116 115 111
159 188 183 172 165 155 154 154 143 130 115 101 91 81 70 61 56 50 50 49 47 46 41 40 45 47 49 57 70 94 103 101 99 112 121 120 117 121 120 126 125 117 115
82 163 181 186 181 175 173 169 161 148 127 115 96 83 72 62 58 53 47 43 42 41 34 35 44 47 50 65 78 100 106 110 112 121 123 126 123 123 128 137 132 124 124
46 123 168 188 192 192 192 184 176 171 155 139 116 95 81 67 58 50 38 38 40 36 27 29 37 39 47 70 88 99 105 116 122 128 127 135 134 133 145 149 137 129 126
28 48 168 191 201 202 197 194 188 186 182 171 152 123 97 73 63 53 39 34 32 28 18 12 17 36 57 88 102 98 119 131 130 141 143 146 148 151 160 158 157 157 153
20 4 260 246 228 217 210 208 205 200 200 193 186 165 130 93 70 50 32 30 26 16 3 359 7 35 78 98 93 108 134 134 128 144 155 158 161 167 172 169 178 189 198
20 357 305 274 255 243 230 222 217 211 209 210 205 190 169 128 78 38 16 17 14 0 352 354 19 72 122 114 101 120 149 143 123 147 158 163 173 185 196 194 206 217 231
18 8 329 293 269 262 242 232 222 214 211 216 215 202 192 179 154 48 8 17 6 353 350 359 46 126 148 160 156 144 171 145 116 149 168 177 190 205 228 228 230 233 248
9 10 351 309 271 254 238 232 223 215 214 215 216 210 200 198 196 207 322 7 -0 350 330 307 232 179 171 172 177 170 158 170 175 191 194 200 212 222 231 242 239 243 252
3 1 350 328 297 248 234 234 225 217 215 216 217 211 205 207 210 219 246 267 312 326 283 245 232 178 172 182 184 187 209 220 218 217 211 217 223 230 238 242 245 245 256
357 353 348 343 321 257 232 228 224 216 216 218 217 211 208 213 216 220 234 241 240 245 228 213 210 189 173 181 189 206 212 213 221 219 212 213 221 230 243 250 246 252 263
356 350 349 348 334 268 230 225 223 218 219 220 217 211 209 213 215 217 229 229 227 227 225 205 211 205 189 182 176 188 202 204 210 214 211 212 223 232 236 247 254 256 262
347 347 344 340 329 285 235 224 217 218 218 217 216 213 209 214 220 218 225 224 225 229 217 199 194 193 192 191 192 196 196 196 196 211 221 226 233 240 247 255 256 259 265
340 338 336 335 331 293 238 227 218 216 214 214 216 216 212 214 219 221 224 226 227 221 209 199 195 198 200 200 200 203 206 216 216 216 219 227 238 247 256 265 272 268 270
336 330 331 332 330 301 250 225 218 215 214 214 217 220 217 214 215 217 223 224 221 214 208 204 206 208 212 212 211 211 210 213 223 226 228 236 247 250 258 270 278 280 278
335 332 331 328 324 298 262 231 221 221 222 219 219 221 217 215 216 218 222 220 219 220 215 211 214 217 221 223 223 224 220 224 228 238 243 247 254 258 261 267 272 278 277
334 332 331 328 326 311 265 235 233 230 227 223 223 220 216 215 217 218 222 223 225 227 226 224 224 226 229 236 239 240 237 237 238 245 249 253 260 262 265 268 270 275 277
333 331 331 330 328 310 291 249 245 242 233 226 220 218 217 218 219 220 222 226 230 233 234 232 231 233 238 241 243 246 246 248 245 247 254 260 266 267 265 265 268 273 278
333 336 333 329 331 319 295 267 248 240 237 228 223 218 218 217 219 222 224 228 233 237 239 239 237 239 243 243 245 246 247 250 251 253 259 262 265 269 268 268 269 273 274
336 338 336 334 327 318 300 268 248 243 233 226 223 221 217 215 219 223 227 232 234 239 242 242 242 244 246 247 249 251 250 250 253 255 258 262 264 268 269 267 271 271 273
338 336 332 332 324 313 303 281 252 240 229 225 219 218 219 219 222 226 230 234 237 241 242 243 246 247 248 249 251 253 252 253 254 255 257 261 264 267 268 267 270 271 273
339 337 332 324 316 303 291 273 255 246 228 220 216 218 219 219 225 228 233 236 239 242 244 247 248 249 249 250 252 252 254 256 257 257 258 261 264 267 268 267 270 270 273